Torna al catalogo

STARLINK-34598

AttivoComunicazioniVLEO
NORAD 64759·PAYLOAD·🇺🇸 United States

Lanciato Jul 8, 2025 da Cape Canaveral Space Force Station

Loading…

Prossimi Passaggi (prossime 24 ore)

TLE

AggiornatoSource: CelesTrak SupGP

Epoca: Sep 14, 2026, 22:37 UTC

1 64759C 25147E   26257.94284722  .00051326  00000+0  15165-2 0  2573
2 64759  53.1586  80.0094 0001219  76.9617 121.2933 15.34363756    16

Traccia STARLINK-34598 in tempo reale con AllMySat

Download on the App Store